STARLINK-33967, 64027

Orbit data source: Space-Track

STARLINK-33967, 64027 is a payload satellite owned by SpaceX/Seattle (US) in LEO that was launched on Fri, 16 May 2025 UTC via an FALCON 9 launch vehicle from the Air Force Western Test Range (AFWTR). Payload-class satellites include a variety of spacecraft equipped with specific instruments for various scientific and technological missions. These include communications satellites like Starlink; space stations such as the ISS; scientific satellites like the Hubble; Earth observation satellites from companies like Planet Labs, Umbra, and HawkEye 360; GPS; miniature CubeSats for education and research; and military/defense satellites.

Loading next visibility...
Identifier
64027, 2025-102F
Orbit
LEO
Country
Flag of USUS
Related business
Manufacturer
SpaceX/Seattle
Mission
Operational Commercial Communications
Bus & Motor
STARLINK V2MO, Unknown motor
Mass
575 kg wet, ~530 kg dry
Launch date (UTC)
2025-05-16 (1 year ago)
Launch vehicle
FALCON 9
Launch site
Air Force Western Test Range (AFWTR)
Object type
Payload
Rocket body
Debris
Shape & HBR
Box + 2 Pan, 17.7 m
Radar Cross Section
36.964 m², Large (>1 m²)

Expand to show TLE details & history
Last TLE update: 10 hours ago

TLE from 10 hours ago
0 STARLINK-33967
1 64027U 25102F   26171.44295507  .00003130  00000-0  26998-3 0  9996
2 64027  70.0006 215.3727 0003522 263.1128  96.9630 14.98337693 61289
Epoch: 2026-06-20T10:37Z
TLE epoch observation values (Epoch: 2026-06-20T10:37:51.318Z)
Latitude
-0.00004°
Longitude
147.25135°
Altitude
574.754 km
Speed
7.574 km/s
True Right ascension
14h 21m 29s
True Declination
0° 00' 00"
Sunlit
Object was in full shadow at epoch
Visualization orbit readout
Latitude
Unknown
Longitude
Unknown
Altitude
Unknown
Speed
Unknown
Apparent Right ascension
Unknown
Apparent Declination
Unknown
Sunlit
N/A
Visualization observer readout
Local Sidereal Time
07:17:27
Azimuth
Unknown
Elevation
Unknown
Doppler factor
Unknown
Orbital elements
Apogee altitude
572.427 km
Perigee altitude
567.533 km
Semi-major axis
6,948.117 km
Eccentricity
0.00035
Inclination
70.0006°
RAAN
215.3727°
Arg. of periapsis
263.1128°
True anomaly
97.00306°
Mean anomaly
96.963°
Eccentric anomaly
96.98303°
Mean motion
3.74751 °/min
Orbital period
96.06 mins
BSTAR
0.00026998
Loading maneuver chart data...
Computing Atmospheric mass density...
Loading historical data...
Loading historical data...
Loading historical data...
Loading historical data...
Loading historical data...
Loading historical data...
Loading historical data...

Documentation

Showing up to 5 results
|